{"data":{"norad_id":67560,"epoch":"2026-09-19T10:53:46.900320Z","epoch_age_seconds":162642,"freshness":"FRESH","line1":"1 67560U 26014AA  26262.45401505  .00013468  00000+0  41872-3 0  9995","line2":"2 67560  97.2860 147.9211 0001615  93.7000 266.4427 15.33447600 38471","mean_motion":15.334476,"eccentricity":0.0001615,"inclination_deg":97.286,"raan_deg":147.9211,"arg_perigee_deg":93.7,"mean_anomaly_deg":266.4427,"bstar":0.00041872,"rev_number":3847,"period_min":93.90604543644,"perigee_km":464.43018561946,"apogee_km":466.64069181717,"semimajor_km":6843.6724387183,"source":"CELESTRAK","updated_at":"2026-09-20T09:00:43.573007Z"}}